Wind_Speed
26 26 25 24 24 23 22 21 19 17 15 13 11 10 9 9 10 12 13 15 17 19 22 24 26 27 30 31 32 33 34 35 34 33 32 32 33 32 32 32 31 32 32
26 26 25 25 24 23 23 22 20 19 17 15 13 11 10 9 9 10 11 13 15 17 19 22 24 26 28 29 31 32 32 34 33 33 32 32 33 33 32 32 31 31 31
26 26 26 25 24 24 24 23 21 20 19 17 15 13 11 10 9 9 10 11 13 15 17 19 21 24 25 27 29 30 30 31 31 32 31 31 32 32 32 32 32 31 31
25 25 25 25 24 24 23 23 23 22 20 18 17 15 14 12 10 9 9 9 10 12 14 15 17 20 22 23 26 27 29 30 30 30 30 31 31 31 32 32 32 31 31
24 25 25 24 24 24 24 24 24 23 21 20 18 17 16 13 11 10 9 8 8 9 11 13 14 17 19 21 23 25 26 27 28 29 29 30 31 30 31 32 32 31 31
24 24 24 24 24 24 24 24 24 24 23 21 20 19 18 16 13 10 9 7 6 7 8 10 12 14 16 18 20 21 23 25 26 28 29 28 28 29 30 31 31 31 30
22 23 23 24 24 24 23 23 24 24 24 23 21 20 19 18 14 11 9 8 7 6 5 7 9 11 14 17 18 19 21 23 24 26 27 27 27 28 28 29 30 30 29
21 21 22 23 23 23 23 23 23 23 23 23 23 21 20 19 16 13 11 9 8 6 4 5 6 8 10 13 15 17 19 20 22 23 25 26 27 26 26 27 27 28 28
21 21 21 22 22 22 22 23 23 23 22 22 22 22 21 20 18 15 12 10 9 8 6 4 5 6 8 10 13 15 17 19 21 22 23 23 24 25 25 25 26 27 27
21 21 21 21 21 21 22 22 22 22 22 21 21 21 21 20 18 16 13 11 10 9 7 5 4 5 7 8 10 12 15 16 18 20 21 22 22 23 24 24 25 26 26
20 21 21 21 21 21 21 21 21 21 21 21 21 20 20 20 18 16 15 12 11 10 9 7 6 6 7 8 9 10 12 13 15 17 18 20 22 23 24 24 24 24 25
21 21 21 21 21 21 21 21 20 20 20 20 20 20 20 19 18 17 16 14 12 11 10 9 7 7 7 7 8 9 10 12 13 15 16 18 20 21 23 23 23 24 23
22 22 22 21 21 21 21 21 20 20 20 19 19 19 19 18 18 17 17 15 13 12 11 10 8 7 7 7 7 8 9 10 11 12 14 16 18 19 19 20 22 23 22
23 23 23 22 22 22 22 21 21 21 20 20 19 18 18 17 17 17 16 16 14 13 12 11 9 8 7 6 6 6 8 9 10 11 13 13 15 17 17 18 19 21 20
25 25 24 24 23 23 23 22 22 21 21 20 20 19 18 17 17 16 16 15 15 14 13 12 11 9 8 7 7 7 8 9 10 11 11 12 13 14 16 17 18 19 19
26 26 25 25 25 25 24 23 23 23 22 22 21 20 20 19 18 17 16 16 15 14 13 13 12 11 9 8 8 8 8 9 10 10 11 12 13 14 15 16 18 18 18
28 27 27 27 27 26 26 25 24 24 24 23 23 22 21 21 20 19 18 17 17 16 15 14 13 12 11 10 10 10 10 11 11 12 13 13 14 14 15 16 17 18 19
29 29 29 29 28 28 27 27 26 25 25 25 25 24 24 23 22 22 21 20 19 18 17 17 16 15 14 13 13 13 13 13 14 14 14 15 15 15 16 16 17 18 18
31 31 31 30 30 30 29 29 28 28 27 27 27 27 26 26 25 25 24 23 22 21 21 20 19 18 18 17 17 16 16 16 16 16 16 17 17 17 18 18 18 19 19
32 33 33 32 32 31 31 31 31 30 30 30 30 30 29 29 28 28 27 27 26 25 25 24 23 23 22 22 21 20 20 19 19 19 18 18 18 18 19 19 19 19 20
34 34 34 34 34 34 34 34 33 33 33 33 33 34 33 33 32 32 31 31 30 30 29 28 27 27 26 26 25 25 24 23 22 22 22 21 21 20 20 20 20 20 20
35 35 35 35 35 35 36 36 36 36 36 36 36 36 37 37 36 36 36 36 35 35 34 34 33 32 31 30 29 28 28 27 27 26 26 26 25 24 24 24 23 23 23
37 37 37 37 37 37 37 38 38 39 39 39 39 39 39 40 40 40 41 41 41 40 40 39 38 37 36 35 34 33 32 31 31 30 29 29 29 28 27 27 26 26 26
39 39 39 39 39 39 39 40 40 41 41 42 42 43 44 44 44 45 45 45 45 45 45 45 44 43 42 41 40 39 38 37 36 35 34 33 32 31 30 30 29 28 28
40 40 40 41 41 41 42 43 43 44 45 45 46 47 48 48 49 49 49 49 49 49 49 49 49 48 46 45 45 44 43 42 41 40 39 37 36 35 34 33 32 31 31
42 42 42 43 43 44 45 46 46 47 48 49 49 50 51 51 52 52 52 52 52 53 52 52 51 51 52 51 49 48 47 47 46 45 44 43 41 39 38 37 36 35 34
Wind_Direction
10 10 10 10 11 10 11 10 10 7 2 358 350 338 322 301 282 269 260 256 252 247 243 242 240 239 237 236 236 235 236 236 238 237 237 234 234 236 238 240 240 241 241
11 11 12 12 13 13 14 14 13 11 8 3 356 348 337 319 300 282 270 262 255 250 245 242 240 240 239 237 235 234 235 236 238 238 238 237 237 237 238 239 241 242 243
12 13 13 14 14 16 16 16 14 12 9 6 3 359 349 335 318 299 284 273 262 254 249 244 241 241 239 236 235 234 234 235 235 237 240 240 238 239 240 239 240 242 244
11 12 13 15 16 16 16 15 15 13 11 8 6 2 356 347 336 320 304 286 271 259 252 248 244 241 239 237 237 236 235 235 235 238 240 240 240 240 241 241 241 242 245
10 12 13 14 15 15 15 15 15 14 13 12 10 5 2 356 348 337 323 302 287 271 259 252 248 242 239 239 239 237 235 236 236 239 241 242 242 242 242 243 244 245 246
7 9 10 12 13 13 14 15 15 15 14 13 11 9 7 4 359 353 343 330 308 288 269 258 251 245 241 240 239 238 236 235 237 240 241 244 244 243 243 245 246 246 246
3 5 7 8 10 11 12 13 14 15 15 14 12 12 11 10 5 1 356 352 342 318 284 266 261 252 244 240 240 240 238 236 238 239 241 243 243 243 244 245 246 247 247
359 1 3 6 7 8 10 11 11 12 14 15 15 15 15 14 12 8 6 2 358 349 318 280 263 254 244 241 240 240 241 239 238 238 240 241 242 243 245 246 246 247 249
356 357 359 1 3 4 6 7 8 9 10 11 13 14 14 15 16 15 11 8 2 356 341 313 284 268 255 247 244 242 240 238 236 236 238 240 244 245 245 246 247 247 248
350 352 354 356 358 359 1 3 5 6 8 9 9 12 13 13 14 14 12 6 2 358 350 333 306 281 270 260 251 244 242 242 241 237 236 238 241 241 241 246 249 249 249
342 345 347 350 352 353 355 357 359 2 4 6 7 8 9 11 12 12 11 5 358 354 351 342 322 298 283 270 259 249 243 242 241 237 236 239 240 241 242 245 247 248 248
334 337 339 341 344 347 349 350 351 353 356 359 1 3 4 5 6 6 6 4 0 356 350 344 332 312 298 285 267 255 250 245 242 239 242 241 240 240 240 241 243 244 246
326 327 329 332 334 337 340 342 344 346 347 349 351 354 357 359 1 1 1 360 359 356 352 348 339 325 310 296 278 261 253 249 250 247 246 243 240 238 239 240 240 241 243
318 320 321 323 325 327 329 331 334 337 340 341 342 344 346 348 350 353 355 356 354 351 349 346 339 330 321 307 288 274 264 258 255 252 250 247 243 240 239 239 239 241 243
314 315 315 316 317 319 321 322 324 326 329 332 334 335 336 338 339 340 343 345 345 344 343 341 337 329 322 310 297 283 274 266 260 256 255 252 250 247 245 243 243 242 242
310 311 312 312 313 313 314 315 316 317 319 321 323 325 325 326 327 328 329 330 332 333 333 333 329 323 317 309 300 288 278 271 263 259 256 255 256 252 251 247 243 242 241
307 308 309 309 309 309 309 309 309 310 311 312 313 314 315 316 317 317 317 317 318 318 317 317 317 315 309 301 294 288 280 274 268 264 262 261 260 258 255 249 245 244 244
304 305 306 306 306 305 305 305 305 305 305 305 306 306 306 307 308 308 307 307 306 306 305 304 302 301 299 294 290 285 281 276 272 270 264 260 259 258 256 252 249 247 248
301 302 303 303 302 302 302 301 301 301 301 300 300 300 300 300 300 299 299 298 297 296 295 294 292 290 289 287 284 281 278 275 272 269 266 262 259 258 255 252 251 250 249
298 299 300 300 300 299 299 298 298 298 297 297 296 296 295 295 295 294 293 292 291 290 288 287 285 283 281 279 278 276 274 271 269 267 265 265 262 259 256 252 252 252 250
296 296 296 297 297 297 296 296 296 296 295 294 294 293 292 291 290 289 288 287 286 285 283 282 281 279 278 276 273 272 270 268 266 264 263 262 260 258 255 253 251 251 251
294 295 295 295 295 295 295 295 295 294 294 293 292 291 291 290 288 287 285 284 282 281 279 278 277 275 273 272 271 269 267 265 264 262 260 258 258 257 255 253 252 251 252
294 294 294 294 294 294 294 294 294 294 293 293 292 291 290 289 288 286 285 283 281 279 277 275 273 272 270 268 266 266 265 263 261 260 259 257 256 255 254 253 252 252 251
293 293 294 294 294 294 294 294 293 293 293 292 292 291 290 289 287 286 284 282 280 278 276 274 272 270 268 266 264 262 261 260 259 258 256 255 254 253 252 252 251 250 249
292 293 293 294 294 294 294 294 294 293 293 292 292 291 290 289 288 286 284 282 280 277 275 273 271 269 266 263 262 260 258 257 256 255 254 253 252 251 251 250 250 249 248
292 293 294 294 295 295 295 295 295 294 294 294 293 292 291 290 288 287 284 282 279 276 274 271 269 267 265 262 259 257 256 255 254 254 252 251 251 250 250 249 248 248 247
Height
5797 5791 5785 5780 5775 5770 5765 5761 5757 5754 5751 5748 5745 5744 5742 5741 5741 5741 5742 5743 5745 5747 5749 5753 5756 5759 5763 5767 5771 5776 5780 5785 5790 5794 5798 5803 5807 5811 5814 5818 5821 5825 5828
5798 5792 5787 5781 5776 5772 5767 5762 5758 5755 5751 5748 5745 5743 5741 5739 5738 5738 5738 5739 5740 5742 5744 5747 5750 5753 5756 5760 5764 5769 5773 5778 5782 5786 5791 5795 5799 5803 5807 5811 5814 5817 5820
5799 5794 5788 5783 5778 5773 5769 5764 5760 5756 5752 5748 5745 5742 5740 5738 5737 5736 5735 5735 5736 5737 5739 5741 5744 5747 5750 5753 5758 5762 5766 5771 5775 5779 5783 5787 5792 5796 5799 5803 5806 5809 5812
5801 5795 5790 5785 5780 5775 5771 5766 5761 5757 5752 5749 5745 5742 5740 5737 5735 5734 5733 5732 5733 5733 5735 5737 5739 5741 5744 5747 5751 5755 5760 5764 5768 5772 5776 5780 5784 5788 5792 5795 5798 5801 5805
5802 5797 5792 5787 5782 5777 5772 5768 5763 5758 5754 5749 5746 5742 5739 5736 5734 5732 5731 5730 5730 5730 5731 5733 5735 5737 5739 5742 5746 5749 5753 5757 5761 5765 5769 5773 5776 5780 5784 5788 5791 5794 5796
5803 5799 5794 5789 5784 5779 5774 5770 5765 5760 5755 5751 5747 5743 5740 5736 5733 5731 5730 5729 5728 5728 5729 5730 5731 5733 5735 5738 5741 5744 5748 5751 5755 5759 5763 5766 5769 5773 5776 5780 5783 5786 5789
5804 5799 5795 5790 5786 5781 5776 5772 5767 5762 5757 5753 5749 5745 5741 5737 5734 5732 5730 5728 5728 5727 5727 5728 5729 5730 5732 5734 5736 5739 5742 5746 5749 5753 5756 5759 5763 5766 5769 5772 5775 5778 5781
5804 5800 5796 5791 5787 5782 5778 5773 5769 5764 5760 5755 5751 5746 5742 5738 5735 5732 5730 5729 5728 5727 5727 5727 5727 5728 5729 5731 5732 5735 5737 5740 5744 5747 5750 5753 5756 5759 5762 5765 5768 5770 5773
5804 5800 5796 5792 5787 5783 5779 5775 5770 5766 5762 5757 5753 5749 5745 5740 5736 5734 5732 5730 5729 5728 5727 5726 5726 5726 5727 5728 5729 5731 5733 5735 5738 5741 5744 5747 5750 5752 5755 5758 5761 5763 5765
5803 5799 5795 5791 5787 5784 5780 5776 5771 5767 5763 5759 5755 5751 5747 5743 5739 5736 5734 5732 5730 5728 5727 5726 5725 5725 5725 5725 5726 5727 5729 5731 5733 5736 5738 5741 5744 5747 5749 5752 5754 5756 5758
5802 5798 5795 5791 5787 5783 5780 5776 5772 5768 5764 5760 5756 5752 5749 5745 5742 5738 5735 5733 5731 5729 5727 5726 5725 5724 5724 5724 5724 5725 5726 5728 5730 5731 5734 5736 5738 5741 5743 5745 5748 5750 5752
5800 5797 5793 5790 5786 5783 5779 5775 5772 5768 5765 5761 5757 5754 5750 5747 5743 5740 5737 5734 5732 5730 5728 5726 5725 5724 5723 5722 5723 5723 5724 5725 5727 5728 5730 5732 5733 5736 5737 5739 5741 5743 5746
5797 5794 5791 5788 5784 5781 5778 5774 5771 5768 5764 5761 5758 5754 5751 5747 5744 5741 5738 5735 5733 5730 5728 5726 5725 5723 5722 5721 5721 5722 5722 5723 5724 5725 5726 5728 5729 5731 5732 5734 5736 5738 5740
5794 5791 5788 5785 5782 5779 5776 5772 5769 5766 5763 5760 5757 5754 5750 5747 5744 5742 5739 5736 5733 5731 5729 5727 5725 5723 5722 5721 5720 5720 5721 5721 5722 5723 5723 5724 5725 5727 5728 5730 5731 5733 5735
5789 5786 5784 5781 5778 5775 5772 5769 5766 5763 5760 5758 5755 5752 5749 5746 5744 5741 5738 5736 5733 5731 5729 5727 5725 5723 5722 5720 5720 5719 5719 5719 5720 5720 5721 5721 5722 5723 5724 5725 5727 5728 5730
5784 5781 5778 5776 5773 5770 5768 5765 5762 5760 5757 5754 5752 5749 5746 5744 5741 5739 5737 5734 5732 5730 5728 5726 5724 5722 5721 5719 5719 5718 5718 5718 5718 5718 5718 5719 5719 5720 5721 5722 5723 5724 5725
5778 5775 5773 5770 5767 5765 5762 5760 5758 5756 5753 5750 5747 5745 5743 5740 5738 5736 5734 5732 5730 5728 5726 5724 5722 5720 5719 5718 5717 5716 5716 5715 5715 5715 5715 5715 5716 5716 5717 5717 5719 5720 5721
5771 5769 5766 5763 5761 5758 5756 5754 5752 5750 5748 5745 5743 5740 5738 5736 5734 5732 5730 5728 5726 5724 5722 5721 5719 5717 5716 5715 5714 5713 5712 5712 5711 5711 5711 5711 5712 5712 5712 5713 5714 5715 5717
5764 5761 5758 5756 5754 5751 5749 5747 5744 5742 5740 5739 5736 5734 5732 5730 5728 5726 5724 5723 5721 5719 5717 5716 5714 5713 5712 5711 5710 5709 5708 5707 5707 5707 5707 5707 5707 5707 5708 5708 5709 5710 5711
5755 5753 5750 5748 5745 5743 5741 5739 5736 5734 5732 5730 5728 5726 5724 5723 5721 5719 5717 5715 5714 5712 5711 5710 5708 5707 5706 5705 5704 5703 5702 5702 5702 5702 5701 5701 5701 5702 5702 5703 5704 5705 5706
5747 5744 5741 5739 5736 5734 5732 5730 5728 5725 5723 5721 5719 5717 5715 5714 5712 5710 5709 5707 5705 5704 5703 5701 5700 5699 5698 5697 5696 5696 5695 5695 5695 5695 5695 5695 5695 5696 5696 5697 5698 5699 5700
5737 5734 5732 5729 5727 5724 5722 5720 5717 5715 5713 5711 5709 5707 5704 5703 5701 5700 5698 5696 5695 5694 5692 5691 5691 5690 5689 5688 5687 5687 5686 5686 5686 5687 5687 5688 5688 5689 5689 5690 5691 5692 5693
5726 5724 5721 5719 5716 5714 5711 5709 5706 5704 5701 5699 5697 5695 5693 5690 5688 5687 5685 5683 5682 5681 5680 5679 5678 5678 5677 5677 5676 5676 5676 5676 5676 5677 5677 5678 5679 5680 5681 5682 5683 5684 5685
5715 5712 5710 5707 5704 5702 5699 5697 5694 5691 5689 5686 5684 5681 5679 5677 5674 5672 5670 5669 5667 5666 5665 5664 5663 5663 5663 5663 5663 5663 5664 5664 5664 5665 5666 5667 5668 5670 5671 5672 5674 5675 5676
5702 5700 5697 5695 5692 5689 5686 5683 5681 5678 5675 5672 5669 5666 5663 5660 5658 5655 5653 5651 5650 5648 5647 5646 5646 5645 5646 5646 5647 5648 5649 5649 5650 5651 5653 5655 5656 5658 5660 5661 5663 5665 5666
5689 5687 5684 5681 5678 5675 5672 5669 5666 5663 5659 5656 5652 5649 5646 5642 5639 5636 5634 5631 5629 5628 5627 5626 5626 5626 5626 5627 5628 5630 5631 5633 5634 5635 5638 5640 5643 5645 5647 5649 5651 5653 5655